Regional Weather Roundup
Issued by NWS

Home | Current Version | Previous Version | Graphics & Text | Print | Product List | Glossary On
Versions: 1 2 3 4 5 6 7 8 9 10 11 12 13 14 15 16 17 18 19 20 21 22 23 24 25 26 27 28 29 30 31 32 33 34 35 36 37 38 39 40 41 42 43 44 45 46 47 48 49 50
000
ASUS43 KMPX 300010
RWRMN
WEATHER ROUNDUP FOR MINNESOTA
NATIONAL WEATHER SERVICE TWIN CITIES/CHANHASSEN MN
700 PM CDT MON SEP 29 2014


NOTE: "FAIR" INDICATES FEW OR NO CLOUDS BELOW 12,000 FEET WITH NO
SIGNIFICANT WEATHER AND/OR OBSTRUCTIONS TO VISIBILITY. N/A MEANS
CURRENT SKY AND/OR WEATHER CONDITIONS ARE NOT AVAILABLE.

MNZ060>063-068>070-300100-
   Twin Cities Metro

CITY           SKY/WX    TMP DP  RH WIND       PRES   REMARKS
TWIN CITIES    PTCLDY    55  45  68 N8        30.11S
6HR MIN TEMP:  55; 6HR MAX TEMP:  58;

ST PAUL        CLEAR     54  46  74 N9        30.12R
CRYSTAL        PTCLDY    55  44  66 NE8       30.11R
BLAINE         PTCLDY    55  46  71 N7        30.12S
LAKEVILLE      CLOUDY    54  46  76 NE7       30.10S
EDEN PRAIRIE   MOCLDY    54  46  74 NE7       30.09F
6HR MIN TEMP:  54; 6HR MAX TEMP:  59;

SOUTH ST PAUL  PTCLDY    56  45  67 N5        30.10F
LAKE ELMO      FAIR      54  45  71 N6        30.12R
$$
MNZ001>005-007-008-013>017-022>024-027-028-300100-
   Northwest Minnesota

CITY           SKY/WX    TMP DP  RH WIND       PRES   REMARKS
BEMIDJI        CLEAR     51  43  74 E7        30.14S
HALLOCK        PTCLDY    54  46  76 NE5       30.12F
ROSEAU         CLOUDY    52  46  82 NE9       30.15F
WARROAD        CLOUDY    52  46  82 E10       30.16S
THIEF RVR FALL CLEAR     54  45  71 E7        30.12F
CROOKSTON      CLEAR     57  46  67 E5        30.11F
FOSSTON        CLEAR     55  48  76 SE5       30.13S
DETROIT LAKES  CLEAR     55  45  67 SE7       30.12S
PARK RAPIDS    CLEAR     53  43  68 E8        30.13S
MAHNOMEN       FAIR      56  44  64 SE7       30.11S
$$
MNZ006-009>011-018-025>026-300100-
   North Central Minnesota

CITY           SKY/WX    TMP DP  RH WIND       PRES   REMARKS
BAUDETTE       PTCLDY    48  42  80 E12       30.17S
FLAG ISLAND    CLOUDY    52  43  71 E3        30.15F
INTL FALLS     CLOUDY    46  40  79 E6        30.19F
6HR MIN TEMP:  45; 6HR MAX TEMP:  48;

WASKISH        PTCLDY    50  45  81 CALM      30.16
BIG FORK       CLEAR     48  41  76 E5        30.18R
LONGVILLE      MOCLDY    48  43  81 E3        30.15S
GRAND RAPIDS   CLOUDY    48  39  71 CALM      30.16F
CRANE LAKE     CLOUDY    43  39  87 CALM      30.22F
ORR            CLOUDY    45  37  76 CALM      30.17F
COOK           CLOUDY    45  39  81 E6        30.20S
WALKER         FAIR      51  43  75 SE3       30.14S
$$
MNZ012-019>021-037-300100-
   Northeast Minnesota

CITY           SKY/WX    TMP DP  RH WIND       PRES   REMARKS
DULUTH         CLOUDY    44  38  79 E9        30.19S
6HR MIN TEMP:  44; 6HR MAX TEMP:  46; 6HR PCP: TRACE;

ELY            CLOUDY    45  37  76 NE3       30.20S
HIBBING        CLOUDY    49  40  71 NE6       30.17F
EVELETH        CLOUDY    46  39  76 NE3       30.18F
DULUTH HARBOR  CLOUDY    48  43  81 E15       30.21S
TWO HARBORS    CLOUDY    43  37  81 E5        30.19S
SILVER BAY     PTCLDY    43  41  93 CALM      30.19S
GRAND MARAIS     N/A     47  39  74 VRB3      30.22S
G MARAIS ARPRT CLOUDY    37  34  87 CALM      30.20S
$$
MNZ029>031-032-039>041-046>048-054>057-064-300100-
   West Central Minnesota

CITY           SKY/WX    TMP DP  RH WIND       PRES   REMARKS
FERGUS FALLS   CLEAR     55  45  67 E5        30.09F
WHEATON        CLEAR     54  46  76 E10       30.10S
MORRIS         PTCLDY    55  46  71 E10       30.08F
ALEXANDRIA     CLOUDY    52  46  80 E8        30.12F
ELBOW LAKE     FAIR      52  46  79 SE9       30.11R
WADENA         PTCLDY    48  43  81 E6        30.12F
GLENWOOD       CLOUDY    54  46  76 E8        30.11F
APPLETON       CLOUDY    57  48  72 E12G17    30.07F
BENSON         CLOUDY    55  48  76 SE9       30.09F
ORTONVILLE     CLOUDY    55  48  76 E8        30.07F
MADISON        CLEAR     57  52  82 E6        30.07F
WILLMAR        CLOUDY    55  46  71 E14       30.11F
$$
MNZ033>034-036-042>043-049>051-058-059-300100-
   Central Minnesota

CITY           SKY/WX    TMP DP  RH WIND       PRES   REMARKS
ST CLOUD       PTCLDY    53  44  71 NE8       30.13S
6HR MIN TEMP:  53; 6HR MAX TEMP:  58;

SAUK CENTRE    MOCLDY    51  46  80 E7        30.12S
PAYNESVILLE    PTCLDY    50  44  80 NE7       30.12S
AITKIN         MOCLDY    52  43  71 E5        30.15S
PINE RIVER     CLOUDY    50  43  76 E9        30.18S
BRAINERD       CLOUDY    50  44  80 VRB3      30.15F
STAPLES        CLOUDY    48  43  81 E6        30.14S
LONG PRAIRIE   CLOUDY    50  45  81 NE9       30.12F
LITTLE FALLS   PTCLDY    50  43  76 E5        30.14S
LITCHFIELD     MOCLDY    55  48  76 E9        30.11F HAZE
BUFFALO        CLEAR     54  44  69 NE7       30.12S
MAPLE LAKE     PTCLDY    53  46  78 NE6       30.12F
$$
MNZ037-044-045-052-053-300100-
   East Central Minnesota

CITY           SKY/WX    TMP DP  RH WIND       PRES   REMARKS
PRINCETON      PTCLDY    54  45  71 N7        30.14S
MORA           MOCLDY    45  37  76 NE3       30.17S
CAMBRIDGE      CLEAR     54  41  62 NE5       30.13R
RUSH CITY      MOCLDY    48  41  76 NE12      30.15S
MOOSE LAKE     CLOUDY    43  37  81 NE6       30.17R
HINCKLEY       FAIR      45  39  81 NE5       30.16S
CLOQUET        CLOUDY    45  39  81 E8        30.19R
MCGREGOR       PTCLDY    46  43  87 E7        30.16F
$$
MNZ071>073-080-081-089-090-097-098-300100-
   Southwest Minnesota

CITY           SKY/WX    TMP DP  RH WIND       PRES   REMARKS
MONTEVIDEO     CLEAR     55  48  76 E10       30.09S
GRANITE FALLS  CLEAR     57  48  72 NE9G18    30.09S
CANBY          CLEAR     57  50  77 E8        30.07S
MARSHALL       CLEAR     59  46  63 E13       30.05S
REDWOOD FALLS  CLEAR     56  48  74 E6        30.08S
OLIVIA         CLEAR     55  46  71 NE8       30.08S
PIPESTONE      CLEAR     63  52  67 E9        30.03S
WINDOM         CLEAR     57  50  77 NE9       30.05S
WORTHINGTON    CLEAR     63  54  72 E8        30.04S
JACKSON        CLEAR     61  50  67 NE9       30.05S
TRACY          PTCLDY    59  50  73 E8        30.06S
SLAYTON        CLEAR     59  50  73 NE13      30.06R
$$
MNZ065>067-074>077-082>085-091>093-300100-
   South Central Minnesota

CITY           SKY/WX    TMP DP  RH WIND       PRES   REMARKS
MANKATO        CLOUDY    55  45  67 NE8G16    30.08S
NEW ULM        CLEAR     55  48  76 NE8G16    30.08S
ST JAMES       CLEAR     59  50  72 NE6       30.07F
FAIRMONT       CLEAR     61  48  63 NE8       30.05S
GLENCOE        CLOUDY    56  45  68 NE6       30.10S
FARIBAULT      CLOUDY    59  45  58 N12       30.09S
OWATONNA       MOCLDY    55  46  71 NE10G16   30.08S
WASECA         CLEAR     55  45  67 NE9       30.09S
ALBERT LEA     CLEAR     57  50  77 NE10      30.06S
$$
MNZ078>079-086>088-094>096-300100-
   Southeast Minnesota

CITY           SKY/WX    TMP DP  RH WIND       PRES   REMARKS
ROCHESTER      PTCLDY    55  48  77 NE9       30.08F
6HR MIN TEMP:  55; 6HR MAX TEMP:  62;

RED WING       CLEAR     55  46  71 CALM      30.09R
STANTON        CLOUDY    56  46  69 NE9       30.08F
DODGE CENTER   CLOUDY    55  48  76 NE10      30.08S
WINONA         CLOUDY    57  48  72 NE3       30.08R
AUSTIN         CLEAR     55  48  76 NE8       30.06S
PRESTON        PTCLDY    52  48  86 NE9       30.07S
$$
ABBREVIATIONS USED IN REMARKS
   TC - TEMPERATURES IN CELSIUS
  WCI - WIND CHILL INDEX
   HX - HEAT INDEX
  VSB - VISIBILITY
$$



USA.gov is the U.S. government's official web portal to all federal, state and local government web resources and services.